Location: Ailly
(50.0793°N, 1.9944°E)
Time: 20:44:38
(UTC+00:00)

Cosmos 1140 Rocket - Pass Details

Date: 15 January 2026
Orbit: 739 x 763 km, 74.1° (Epoch: 15 February)

Event Time Altitude Azimuth Distance (km) Brightness Sun altitude
Rises 06:34:57 0° 216° (SW) 3,164 6.5 -10.9°
Reaches altitude 10° 06:37:21 10° 221° (SW) 2,246 5.7 -10.5°
Maximum altitude 06:42:19 54° 299° (WNW) 905 3.5 -9.8°
Drops below altitude 10° 06:47:22 10° 17° (NNE) 2,272 5.9 -9.0°
Sets 06:49:48 0° 22° (NNE) 3,203 6.7 -8.7°
